Location: Conflandey
(47.7287°N, 6.0456°E)
Time: 03:54:07
(UTC+00:00)

CZ-2D R/B - Pass Details

Date: 24 October 2021
Orbit: 519 x 536 km, 97.4° (Epoch: 28 November)

Event Time Altitude Azimuth Distance (km) Brightness Sun altitude
Rises 17:15:52 0° 163° (SSE) 2,665 6.7 -8.2°
Reaches altitude 10° 17:17:58 10° 162° (SSE) 1,783 5.8 -8.5°
Maximum altitude 17:21:49 80° 75° (ENE) 551 3.2 -9.2°
Drops below altitude 10° 17:25:43 10° 349° (N) 1,805 6.0 -9.8°
Sets 17:27:51 0° 349° (N) 2,702 6.9 -10.2°
